Location: Ku?niki
(51.4449°N, 17.8974°E)
Time: 08:27:41
(UTC+00:00)

ZACube-1 - Visible Passes

Search period start: 25 June 2022 00:00
Search period end: 05 July 2022 00:00
Orbit: 581 x 663 km, 97.6° (Epoch: 24 June)

Date Brightness Start Highest point End Pass type
(mag) Time Alt. Az. Time Alt. Az. Time Alt. Az.
28 Jun ? 01:20:04 10° ENE 01:21:34 11° E 01:23:05 10° ESE visible
29 Jun ? 01:36:44 10° NE 01:39:37 17° E 01:42:32 10° SE visible
03 Jul ? 01:13:59 10° ENE 01:14:24 10° E 01:14:48 10° E visible
04 Jul ? 01:29:51 10° NE 01:32:27 15° E 01:35:04 10° ESE visible
